Vertical_Velocity
1 3 7 12 15 17 17 17 16 14 10 5 4 3 3 3 4 6 7 7 4 1 -0 -1 -0 -0 0 0 0 1 1 1 2 3 4 5 3 1 -1 -3 -2 -2 -1 -1 -0 1 2 1 -0 -0 -1 -1 -1 -1 -1 -0 1 1 0 1 2 2 2 1 -1 -1 0 2 4
2 6 10 16 20 22 24 24 24 23 18 9 3 3 4 5 5 5 5 4 2 0 -0 -0 -0 -0 -0 -1 -1 -0 0 0 1 2 2 2 1 -1 -1 -2 -1 -1 -1 -2 -2 -0 1 1 0 -0 -0 0 1 -1 -2 -1 2 2 2 2 2 2 2 0 -0 1 3 6 8
5 7 11 16 19 21 21 20 21 21 19 12 6 5 6 6 6 5 4 2 1 1 0 0 0 -0 -0 -0 -0 0 0 0 1 1 1 1 0 -0 -0 -0 -0 -1 -2 -2 -1 -0 0 1 0 -0 0 3 5 3 -1 -1 2 3 3 1 2 2 2 -0 1 3 6 9 11
6 7 9 12 14 15 15 16 18 18 17 13 9 7 7 7 6 4 3 2 2 1 0 -0 0 1 1 1 1 1 1 1 1 1 0 -0 0 -0 -0 -0 -0 -1 -1 -0 1 1 1 2 1 1 3 6 6 2 -1 0 2 3 2 1 2 2 1 -0 1 3 6 10 14
7 7 7 8 9 10 10 10 12 12 12 12 9 7 6 6 5 4 3 1 0 -0 -1 -0 0 1 1 2 2 1 1 1 1 2 2 3 1 2 3 2 -0 -1 0 2 3 3 3 4 4 4 5 10 10 5 -0 1 2 2 1 1 2 2 1 0 0 2 6 11 16
5 6 6 6 6 6 7 6 7 6 6 6 5 5 4 4 5 5 4 1 -0 -1 -1 -0 0 1 1 1 1 1 1 1 2 4 6 6 5 5 4 1 0 1 2 3 2 2 2 4 5 6 7 10 9 5 2 1 1 1 1 1 1 1 1 0 0 2 4 7 11
3 4 4 4 4 5 5 5 5 4 3 2 2 2 3 2 4 5 5 5 4 2 0 -0 0 0 0 -0 -0 0 0 -0 0 1 2 2 3 3 2 0 1 2 3 3 2 2 2 3 5 6 8 10 12 9 4 1 1 1 -0 -0 -0 0 1 -0 0 1 3 3 4
1 2 3 4 4 5 5 5 4 4 3 2 1 1 1 1 1 2 3 6 6 5 3 1 0 0 1 2 0 -1 -1 -1 -1 -2 -1 -0 1 1 2 2 3 3 3 3 3 2 2 4 6 6 7 9 10 9 6 2 2 1 0 -0 -0 1 2 1 2 3 4 6 7
-0 1 3 4 4 4 4 3 3 3 2 1 1 0 -0 -0 -0 -0 0 2 5 7 7 4 1 1 3 5 4 2 1 -0 -1 -1 0 1 2 2 3 3 3 4 4 4 4 4 4 6 7 8 9 10 8 6 4 3 2 2 1 2 3 4 6 6 7 8 10 12 11
-1 0 2 3 3 2 2 2 2 2 2 1 1 -0 -0 -1 -0 -0 0 0 3 6 7 5 3 2 3 4 6 6 4 2 1 1 2 3 3 3 2 2 3 3 4 4 4 5 5 7 9 10 10 9 6 3 1 3 3 2 2 4 6 8 9 8 10 11 12 11 7
-2 -1 0 1 1 0 -0 -0 0 1 1 1 0 -0 -1 -1 -1 0 1 2 3 4 4 3 3 3 3 3 3 4 4 3 1 1 2 3 3 2 2 1 2 2 3 4 4 5 5 7 8 9 8 7 4 2 0 1 2 3 3 4 6 8 9 8 9 10 9 7 3
-2 -2 -2 -2 -1 -1 -1 -1 -0 0 1 1 0 -0 -1 -1 -1 0 2 3 2 2 2 2 2 2 2 2 2 1 2 2 1 1 1 2 3 2 2 1 2 2 2 2 3 4 4 6 7 8 7 5 3 1 -0 -0 1 3 4 4 5 7 8 9 10 10 8 5 2
-2 -2 -2 -1 1 2 1 0 0 0 0 -0 -0 -1 -1 -1 -1 -0 1 2 2 2 1 1 1 1 2 1 -0 -0 -0 0 1 2 3 4 4 3 3 2 2 2 2 2 3 4 6 7 8 10 9 6 5 3 1 1 2 3 4 4 5 6 8 11 13 11 8 3 3
-0 -0 1 4 8 9 8 4 2 1 -0 -1 -2 -2 -1 -1 -1 -1 -0 0 1 1 1 0 0 1 1 -0 -1 -1 -0 1 3 4 6 6 5 4 3 2 2 2 2 2 4 6 8 10 10 11 11 10 9 7 4 2 2 2 4 5 6 7 9 12 14 12 8 3 5
5 5 6 9 12 12 10 7 3 1 -1 -2 -3 -3 -2 -1 -0 1 1 2 2 2 2 2 2 2 2 2 1 1 1 2 4 6 8 8 7 7 6 5 3 2 2 4 6 8 9 9 10 10 11 12 11 9 6 1 -1 -1 1 4 6 7 10 13 15 13 9 4 7
10 10 11 12 12 11 9 6 3 1 -1 -2 -3 -3 -3 -1 2 4 5 4 4 5 5 6 6 7 7 7 6 5 4 4 5 7 8 9 9 9 9 8 6 4 4 7 12 14 13 10 10 10 11 11 10 7 4 -0 -2 -2 -0 0 3 6 10 14 18 17 12 6 8
12 13 13 13 13 11 8 5 2 -0 -1 -2 -2 -3 -2 1 4 7 7 6 6 6 6 7 8 8 9 9 8 8 8 7 6 5 5 6 7 8 8 8 7 6 8 14 22 23 19 14 13 12 11 9 6 3 0 -2 -1 -0 -0 -1 1 4 9 15 22 21 16 7 9
12 12 13 13 12 9 6 3 2 0 -0 -1 -1 -1 0 2 5 7 7 6 6 5 4 4 4 5 5 5 5 6 6 6 4 2 1 1 3 4 5 5 6 8 14 24 28 24 17 12 10 8 6 3 -0 -2 -3 -2 -2 -1 -0 -1 -0 3 8 16 22 21 16 9 10
11 11 10 9 7 5 3 2 1 1 1 1 1 1 2 3 5 6 6 5 4 3 2 1 1 -0 -0 -0 0 1 1 2 1 0 -0 -0 1 2 2 2 5 10 18 30 32 24 14 7 6 4 1 -2 -4 -4 -3 -2 -1 -1 -1 -1 -0 2 7 14 18 17 14 12 10
8 6 5 3 2 1 0 1 1 2 2 2 2 2 2 3 4 4 4 3 2 2 1 -1 -1 -1 0 2 3 3 3 3 3 3 2 2 2 2 1 2 4 9 17 28 31 24 13 6 4 1 -1 -1 -1 -0 0 0 0 -0 -0 -1 -1 -0 3 7 10 12 11 10 5
3 2 0 -1 -1 -1 -1 -0 1 1 2 2 2 3 3 3 4 4 4 3 2 1 1 1 2 4 7 8 8 8 8 7 7 6 5 4 3 3 2 3 4 7 12 19 21 17 11 6 4 2 2 3 4 4 4 3 2 2 1 0 -1 -1 0 2 5 6 5 3 -0
-0 -0 -1 -0 0 1 2 2 3 4 4 5 5 5 5 5 6 6 6 6 5 5 4 5 7 8 8 8 7 7 7 7 6 6 6 5 4 4 4 3 3 4 7 10 12 11 8 5 3 3 4 4 5 4 4 3 3 2 1 1 -0 -0 -0 -0 0 0 -0 -2 -3
1 1 2 4 4 5 6 6 6 7 7 8 8 8 8 9 9 10 10 10 9 8 8 8 7 6 5 4 4 4 4 4 4 4 4 4 4 4 3 2 2 2 4 5 6 5 4 3 2 2 3 3 3 2 2 1 1 1 0 -1 -1 -2 -2 -2 -2 -3 -3 -3 -4
5 6 7 8 8 8 7 7 7 8 8 8 8 9 9 10 11 11 11 10 9 8 7 6 4 4 3 2 2 2 2 2 2 2 1 1 2 2 1 -0 -0 -0 -0 1 1 1 0 0 0 0 1 1 0 -0 -0 -1 -1 -1 -1 -2 -2 -2 -3 -3 -4 -4 -5 -5 -4
9 9 9 9 9 8 8 8 8 8 8 8 8 7 8 8 9 9 8 7 6 5 4 3 2 2 1 1 1 1 1 1 1 1 0 -0 0 0 -0 -1 -1 -1 -1 -2 -2 -1 -1 -1 -1 -1 -1 -1 -1 -1 -2 -2 -2 -2 -2 -3 -3 -4 -4 -5 -6 -5 -5 -4 -2
7 7 7 7 8 8 8 7 7 7 7 7 7 6 6 6 6 5 4 4 2 2 1 1 1 1 2 2 1 1 1 1 1 2 2 3 1 -0 -1 -1 -1 -2 -2 -2 -2 -2 -2 -2 -2 -1 -1 -1 -1 -1 -2 -2 -3 -4 -4 -5 -6 -6 -6 -6 -5 -3 -1 0 1
5 5 6 5 6 6 5 5 5 5 5 5 5 5 4 4 3 2 1 0 -0 -0 0 0 -1 0 1 2 2 1 1 2 1 2 2 2 0 -1 -1 -2 -2 -2 -2 -1 -1 -1 -2 -2 -2 -2 -1 -1 -1 -2 -2 -3 -3 -4 -5 -5 -4 -3 -1 1 2 3 3 3 3
4 5 5 5 5 4 4 3 3 2 2 3 3 3 2 2 1 -0 -0 -1 -1 -0 -0 -1 -1 -0 1 1 1 1 1 1 -0 -0 -0 -0 -0 -0 -1 -1 -1 -1 -1 -1 -1 -1 -2 -2 -3 -2 -2 -2 -2 -2 -2 -2 -2 -3 -2 -2 1 3 5 5 5 4 4 3 2
3 4 5 6 5 4 4 3 2 2 2 2 2 2 1 -0 -1 -1 -1 -1 -1 -1 -1 -1 -0 1 1 -0 1 1 0 -1 -1 -1 -1 -1 -1 -1 -1 -1 -1 -2 -2 -2 -2 -2 -2 -3 -3 -3 -2 -2 -2 -1 -1 -1 -2 -1 -0 1 3 4 4 2 2 1 1 1 1
2 3 4 5 4 4 3 2 2 2 2 2 2 2 1 -0 -1 -1 -1 -0 -0 -0 -0 -1 -0 0 1 0 1 1 0 -2 -2 -2 -2 -2 -2 -1 -1 -1 -1 -2 -2 -2 -2 -2 -2 -3 -2 -2 -2 -1 -1 -1 -1 -1 -1 0 2 2 2 1 0 -0 -0 0 0 0 1
1 2 3 5 4 3 2 1 1 1 1 1 1 1 0 -0 -1 -1 -0 0 1 0 -0 -1 -1 -1 -0 -0 -1 -1 -1 -2 -2 -2 -2 -1 -0 -1 -1 -1 -1 -2 -2 -2 -2 -2 -2 -1 -1 -0 -0 -0 -0 -1 -0 -0 0 1 2 3 2 1 0 0 -0 -0 -0 -0 0
-0 1 2 3 4 4 4 3 2 1 -0 -1 -0 -0 -0 -0 -0 -0 -0 -0 -1 -1 -1 -1 -1 -1 -1 -1 -1 -1 -1 -2 -2 -2 -2 -1 -1 -2 -2 -2 -1 -2 -2 -2 -1 -1 -0 -0 0 1 1 1 0 0 -0 0 -0 0 1 2 2 2 2 1 1 0 0 1 1
-1 -0 1 2 3 4 4 4 3 1 -1 -1 -1 -1 -1 -1 -0 -0 -1 -1 -2 -2 -3 -3 -2 -1 -1 -1 -1 -1 -1 -2 -2 -2 -2 -1 -1 -2 -2 -2 -2 -2 -2 -1 -1 -0 0 1 1 1 1 1 0 0 0 -0 -0 -0 0 1 1 2 2 2 2 2 2 2 2
-0 0 1 1 2 2 3 3 2 -0 -2 -4 -4 -3 -2 -1 -1 -1 -1 -1 -2 -3 -3 -4 -3 -3 -2 -2 -2 -2 -2 -2 -2 -2 -2 -2 -1 -1 -1 -1 -1 -1 -1 -1 -0 0 1 1 1 2 1 1 1 0 0 -0 -0 -0 -0 -0 0 1 1 2 2 2 2 2 1
0 1 1 1 1 2 2 2 1 -1 -4 -7 -6 -4 -2 -0 -0 -0 -0 -1 -2 -2 -2 -2 -2 -3 -3 -3 -3 -3 -3 -3 -3 -2 -2 -1 -1 -1 -1 -1 -0 -0 -0 -0 -0 0 1 1 2 2 2 1 1 1 1 0 0 -0 -0 -0 0 1 1 1 1 1 1 1 1
-1 -0 -0 -0 0 1 2 2 1 -2 -5 -8 -7 -4 -2 -0 -0 0 0 -0 -2 -2 -1 -1 -1 -1 -2 -2 -2 -3 -3 -3 -3 -2 -2 -1 -1 -1 -0 -0 -0 -0 -0 -0 -0 -0 0 1 1 2 2 2 1 1 1 1 0 0 0 0 0 1 1 1 1 1 1 1 0
-2 -2 -2 -2 -1 -0 1 2 1 -1 -4 -6 -5 -4 -3 -1 -1 -0 1 1 1 1 1 -0 -2 -2 -2 -2 -2 -3 -3 -3 -3 -2 -2 -1 -1 -0 -0 -0 -0 -1 -1 -0 -0 -0 -0 0 1 1 2 2 1 1 1 1 1 1 1 0 0 0 0 0 0 1 1 0 0
-3 -3 -3 -3 -2 -1 -0 1 1 -1 -2 -3 -4 -3 -2 -1 -1 -0 -0 0 1 1 1 -0 -1 -1 -1 -1 -2 -2 -2 -2 -2 -2 -2 -1 -1 -0 -0 -0 -0 -0 -1 -1 -1 -0 -0 -0 0 1 1 1 1 1 1 1 1 1 1 0 -0 0 0 1 1 1 0 0 0
-3 -3 -2 -2 -2 -2 -1 -1 -0 -0 -1 -2 -2 -2 -2 -1 -1 -1 -1 -1 -0 1 1 0 -0 0 0 -0 -1 -1 -1 -1 -1 -1 -1 -1 -1 -1 -0 -0 -0 -0 -0 -1 -1 -0 -0 -0 0 1 1 1 1 1 1 1 1 1 1 1 0 0 0 1 1 0 0 0 1
-3 -2 -2 -1 -2 -2 -2 -2 -1 -1 -1 -2 -2 -2 -2 -1 -1 -1 -0 -1 -0 0 1 1 1 1 1 1 0 0 0 0 0 -0 -0 -0 -0 -1 -1 -0 0 0 0 -0 -0 -0 -0 -0 -0 0 1 1 1 1 1 1 1 1 1 1 1 0 0 0 1 0 -0 -0 1
-3 -2 -2 -1 -1 -1 -1 -2 -1 -2 -2 -2 -3 -2 -2 -1 -1 -1 -1 -1 -0 0 0 0 0 0 1 1 1 1 1 1 1 1 1 1 0 0 -0 0 1 1 1 1 0 -0 -0 -0 -0 -0 0 1 1 1 1 1 1 1 1 1 0 0 -0 0 1 0 -0 -0 1
Height
5694 5696 5697 5700 5703 5706 5708 5708 5709 5710 5710 5708 5709 5711 5712 5714 5715 5717 5719 5721 5723 5725 5727 5729 5731 5732 5735 5737 5739 5740 5742 5744 5746 5747 5749 5750 5752 5752 5753 5754 5754 5755 5756 5757 5758 5759 5760 5762 5763 5765 5766 5767 5767 5768 5769 5769 5770 5771 5772 5772 5774 5776 5777 5778 5778 5779 5779 5779 5780
5692 5694 5697 5700 5704 5708 5711 5712 5713 5714 5712 5708 5708 5709 5711 5712 5713 5715 5717 5719 5721 5723 5725 5727 5729 5730 5732 5734 5736 5738 5740 5742 5743 5745 5746 5747 5748 5749 5750 5751 5752 5752 5753 5754 5755 5756 5757 5759 5760 5761 5762 5763 5765 5765 5766 5767 5767 5769 5770 5771 5772 5774 5775 5776 5776 5777 5777 5777 5778
5691 5693 5697 5701 5704 5707 5709 5710 5712 5713 5714 5712 5707 5707 5709 5710 5712 5713 5715 5717 5719 5722 5723 5725 5727 5728 5730 5732 5734 5736 5737 5739 5741 5742 5743 5745 5746 5747 5747 5748 5749 5750 5750 5751 5752 5754 5755 5756 5757 5758 5759 5761 5763 5764 5764 5765 5766 5767 5768 5769 5771 5772 5773 5773 5774 5775 5775 5775 5776
5690 5692 5697 5700 5702 5704 5705 5706 5709 5712 5712 5707 5706 5706 5707 5709 5711 5712 5714 5716 5718 5720 5722 5723 5725 5727 5729 5730 5732 5734 5736 5737 5738 5740 5741 5742 5743 5744 5745 5746 5747 5748 5749 5749 5751 5752 5753 5754 5755 5756 5757 5758 5760 5762 5762 5763 5764 5765 5766 5767 5769 5770 5770 5771 5772 5772 5773 5773 5774
5688 5691 5694 5697 5699 5701 5702 5702 5706 5708 5708 5706 5704 5704 5706 5707 5709 5711 5713 5715 5717 5718 5720 5722 5723 5725 5727 5729 5730 5732 5733 5735 5736 5737 5739 5740 5741 5742 5743 5744 5744 5745 5747 5748 5749 5751 5752 5752 5753 5755 5756 5757 5759 5760 5761 5762 5762 5763 5764 5765 5766 5767 5768 5769 5769 5770 5770 5771 5772
5687 5689 5691 5693 5695 5697 5697 5698 5700 5701 5701 5702 5702 5702 5704 5707 5708 5710 5712 5714 5716 5717 5718 5720 5722 5723 5725 5727 5728 5730 5731 5733 5734 5735 5737 5738 5740 5740 5741 5741 5742 5743 5745 5746 5747 5749 5750 5751 5752 5754 5755 5757 5758 5759 5759 5760 5761 5761 5762 5763 5764 5765 5766 5766 5767 5767 5768 5769 5770
5685 5686 5687 5689 5691 5692 5693 5694 5695 5696 5697 5698 5699 5701 5703 5705 5707 5710 5712 5714 5715 5716 5717 5718 5720 5721 5723 5725 5726 5728 5729 5730 5732 5732 5733 5735 5736 5737 5738 5739 5740 5742 5743 5744 5745 5747 5748 5750 5751 5752 5754 5757 5758 5758 5758 5758 5759 5759 5760 5760 5761 5762 5763 5763 5764 5765 5766 5767 5767
5684 5685 5686 5687 5689 5690 5691 5692 5693 5694 5695 5697 5698 5700 5702 5704 5706 5707 5710 5712 5713 5715 5716 5717 5718 5720 5721 5723 5724 5726 5727 5728 5729 5730 5731 5732 5734 5735 5736 5737 5738 5739 5741 5742 5743 5744 5746 5747 5749 5751 5752 5754 5756 5757 5757 5756 5757 5757 5757 5758 5759 5759 5760 5761 5762 5763 5764 5765 5765
5683 5684 5685 5686 5687 5688 5690 5691 5692 5693 5694 5696 5697 5699 5700 5702 5704 5706 5707 5709 5711 5712 5715 5717 5717 5718 5719 5721 5723 5724 5726 5727 5727 5728 5730 5731 5732 5733 5734 5735 5736 5737 5738 5740 5741 5742 5744 5745 5747 5749 5751 5753 5755 5755 5755 5754 5754 5755 5755 5756 5756 5757 5758 5759 5760 5761 5762 5763 5763
5682 5683 5684 5685 5686 5687 5688 5689 5691 5692 5693 5695 5696 5697 5699 5701 5702 5704 5706 5707 5709 5711 5713 5714 5715 5716 5717 5719 5721 5723 5724 5725 5726 5727 5728 5729 5730 5731 5732 5733 5734 5735 5736 5737 5739 5740 5742 5743 5746 5748 5750 5752 5752 5751 5750 5751 5752 5752 5753 5754 5754 5755 5756 5757 5758 5759 5760 5760 5760
5681 5682 5682 5683 5685 5686 5687 5688 5690 5691 5692 5694 5695 5697 5698 5700 5701 5703 5704 5706 5707 5709 5711 5712 5713 5715 5716 5717 5719 5721 5723 5724 5724 5724 5726 5727 5728 5729 5730 5731 5732 5733 5734 5735 5736 5737 5739 5741 5743 5746 5747 5748 5747 5747 5747 5747 5748 5750 5751 5752 5752 5753 5754 5754 5756 5757 5757 5757 5757
5679 5680 5681 5682 5683 5685 5686 5687 5689 5690 5692 5693 5694 5696 5697 5699 5700 5701 5703 5704 5705 5707 5708 5710 5712 5713 5715 5716 5717 5718 5720 5721 5722 5722 5723 5724 5726 5727 5728 5729 5730 5731 5732 5733 5734 5735 5736 5738 5741 5742 5744 5744 5744 5744 5744 5744 5745 5747 5748 5749 5750 5750 5751 5752 5753 5754 5754 5755 5755
5677 5678 5680 5681 5683 5684 5686 5687 5688 5689 5691 5692 5693 5695 5696 5698 5699 5700 5701 5702 5704 5705 5707 5708 5710 5712 5713 5714 5715 5716 5717 5718 5719 5720 5722 5723 5724 5725 5726 5727 5727 5728 5729 5730 5731 5732 5733 5735 5737 5739 5740 5741 5742 5741 5741 5742 5742 5743 5745 5746 5747 5747 5748 5749 5751 5752 5752 5752 5753
5676 5677 5679 5681 5682 5683 5685 5686 5687 5688 5690 5691 5692 5694 5695 5697 5697 5699 5700 5701 5702 5704 5705 5707 5708 5710 5711 5712 5712 5713 5714 5716 5717 5718 5720 5722 5723 5724 5724 5724 5725 5725 5726 5727 5728 5729 5730 5732 5733 5735 5737 5738 5739 5740 5740 5739 5739 5740 5741 5742 5743 5744 5745 5746 5748 5749 5749 5749 5750
5677 5678 5679 5681 5682 5682 5682 5683 5685 5687 5688 5689 5691 5692 5693 5695 5696 5697 5698 5699 5701 5702 5704 5705 5706 5708 5709 5710 5711 5711 5712 5713 5714 5716 5717 5720 5722 5722 5722 5722 5722 5723 5723 5724 5725 5727 5728 5729 5731 5732 5733 5734 5736 5737 5737 5737 5736 5737 5737 5738 5739 5741 5742 5743 5745 5746 5746 5746 5747
5677 5679 5680 5681 5682 5682 5682 5682 5683 5684 5686 5687 5689 5690 5692 5693 5694 5695 5697 5698 5699 5700 5702 5703 5704 5706 5707 5708 5709 5710 5711 5711 5712 5713 5715 5717 5718 5719 5720 5720 5720 5720 5721 5722 5723 5725 5726 5727 5728 5730 5730 5731 5732 5732 5733 5733 5733 5732 5733 5734 5735 5736 5738 5740 5742 5743 5743 5743 5744
5674 5675 5677 5678 5680 5681 5682 5683 5684 5685 5686 5687 5688 5689 5690 5691 5692 5693 5695 5696 5697 5698 5700 5701 5702 5703 5705 5706 5707 5708 5709 5710 5711 5711 5712 5713 5714 5715 5716 5716 5717 5717 5718 5720 5722 5724 5725 5726 5727 5727 5727 5727 5727 5728 5729 5729 5728 5728 5729 5729 5730 5731 5733 5736 5738 5740 5740 5740 5740
5670 5672 5673 5674 5676 5677 5680 5682 5684 5686 5687 5688 5688 5688 5689 5690 5691 5692 5692 5693 5694 5696 5697 5698 5699 5701 5702 5702 5703 5705 5706 5707 5708 5709 5709 5709 5710 5711 5711 5712 5712 5714 5716 5719 5721 5721 5721 5722 5722 5723 5723 5723 5723 5724 5725 5725 5724 5724 5724 5725 5725 5727 5728 5731 5734 5736 5737 5737 5737
5668 5669 5671 5672 5673 5675 5677 5678 5680 5682 5683 5685 5686 5686 5687 5688 5689 5689 5690 5691 5692 5693 5694 5695 5696 5697 5698 5699 5699 5700 5701 5702 5703 5705 5706 5706 5706 5707 5707 5707 5709 5711 5713 5717 5719 5718 5717 5718 5719 5719 5719 5720 5720 5721 5721 5721 5721 5720 5720 5721 5721 5722 5724 5727 5730 5732 5733 5733 5734
5666 5667 5669 5671 5672 5674 5675 5677 5677 5679 5680 5681 5682 5683 5684 5685 5686 5687 5687 5688 5689 5691 5692 5692 5693 5694 5695 5696 5697 5697 5698 5699 5700 5701 5702 5702 5702 5702 5703 5704 5705 5707 5710 5713 5716 5716 5716 5716 5717 5717 5717 5717 5717 5717 5717 5717 5717 5717 5717 5718 5718 5718 5720 5722 5726 5728 5729 5730 5730
5665 5666 5668 5670 5671 5672 5674 5675 5676 5677 5678 5679 5680 5681 5682 5683 5684 5685 5685 5686 5687 5688 5689 5690 5692 5693 5694 5695 5696 5696 5696 5697 5697 5697 5698 5698 5698 5699 5700 5701 5702 5703 5706 5709 5712 5713 5714 5714 5715 5715 5716 5716 5715 5715 5714 5714 5714 5715 5715 5715 5716 5717 5718 5720 5722 5724 5726 5727 5727
5664 5666 5667 5668 5670 5671 5672 5673 5674 5675 5676 5677 5678 5679 5680 5681 5682 5683 5684 5684 5685 5686 5687 5689 5690 5691 5692 5693 5693 5694 5694 5694 5695 5695 5695 5696 5697 5697 5697 5698 5699 5701 5703 5705 5708 5710 5711 5712 5712 5712 5713 5712 5712 5712 5712 5712 5712 5712 5713 5714 5714 5715 5717 5718 5720 5722 5723 5724 5723
5663 5665 5666 5667 5668 5669 5670 5671 5672 5672 5673 5674 5676 5677 5678 5679 5680 5681 5682 5683 5684 5685 5687 5688 5688 5689 5690 5691 5691 5692 5692 5692 5693 5693 5694 5695 5696 5697 5697 5697 5698 5700 5702 5703 5705 5707 5708 5709 5709 5709 5710 5710 5710 5710 5710 5710 5710 5711 5711 5712 5713 5714 5715 5717 5718 5719 5719 5719 5719
5662 5663 5664 5665 5666 5667 5668 5669 5669 5670 5671 5672 5673 5674 5676 5677 5678 5679 5680 5681 5682 5684 5685 5686 5687 5687 5688 5689 5689 5690 5691 5692 5692 5692 5693 5694 5695 5696 5697 5697 5698 5699 5701 5702 5703 5704 5705 5706 5706 5707 5707 5707 5707 5707 5707 5708 5708 5709 5709 5710 5711 5712 5713 5714 5714 5714 5714 5715 5715
5660 5661 5662 5663 5664 5665 5666 5667 5668 5669 5670 5670 5671 5672 5673 5675 5676 5677 5678 5679 5680 5682 5683 5684 5684 5685 5686 5687 5687 5688 5689 5690 5691 5692 5693 5693 5694 5694 5695 5696 5697 5698 5699 5700 5701 5702 5702 5703 5703 5704 5704 5704 5704 5705 5705 5705 5706 5707 5707 5708 5709 5710 5710 5710 5710 5710 5711 5712 5712
5658 5659 5660 5662 5662 5663 5665 5665 5666 5667 5668 5669 5670 5671 5672 5673 5674 5675 5676 5677 5678 5679 5681 5681 5682 5683 5684 5685 5686 5687 5687 5688 5689 5690 5691 5692 5692 5693 5694 5695 5696 5696 5697 5698 5699 5699 5700 5700 5701 5701 5701 5702 5702 5702 5702 5703 5703 5704 5705 5705 5706 5706 5706 5707 5707 5708 5708 5709 5709
5656 5657 5658 5660 5661 5662 5663 5663 5664 5665 5667 5667 5668 5669 5670 5671 5672 5673 5674 5675 5676 5677 5678 5679 5680 5681 5682 5682 5684 5684 5685 5686 5687 5688 5689 5689 5690 5691 5692 5692 5693 5694 5695 5696 5696 5697 5697 5698 5698 5698 5699 5699 5699 5700 5700 5701 5701 5702 5702 5702 5703 5703 5704 5705 5705 5706 5706 5707 5707
5655 5657 5657 5658 5659 5660 5661 5662 5663 5664 5665 5666 5667 5667 5668 5669 5670 5671 5672 5672 5674 5675 5676 5677 5678 5679 5680 5681 5682 5683 5683 5684 5685 5685 5686 5687 5687 5688 5689 5690 5691 5692 5693 5693 5694 5695 5695 5695 5696 5696 5696 5697 5697 5697 5697 5697 5698 5699 5699 5700 5701 5702 5702 5703 5703 5703 5703 5703 5703
5653 5655 5657 5657 5657 5658 5659 5660 5661 5662 5663 5664 5665 5666 5666 5667 5667 5668 5670 5671 5672 5673 5673 5674 5676 5677 5678 5679 5680 5681 5681 5682 5682 5682 5683 5684 5685 5686 5687 5688 5689 5689 5690 5691 5691 5692 5692 5692 5692 5692 5693 5693 5693 5694 5694 5695 5695 5696 5697 5698 5699 5700 5700 5700 5699 5700 5700 5700 5700
5652 5653 5654 5655 5655 5656 5657 5658 5659 5660 5661 5662 5663 5664 5664 5665 5666 5667 5668 5669 5670 5671 5671 5672 5674 5675 5676 5677 5677 5678 5678 5678 5679 5680 5681 5682 5683 5683 5684 5685 5686 5686 5687 5687 5688 5688 5688 5688 5689 5689 5689 5690 5690 5691 5691 5692 5692 5693 5694 5695 5696 5696 5696 5696 5696 5696 5696 5696 5696
5650 5651 5652 5653 5653 5654 5654 5655 5656 5657 5658 5659 5660 5661 5662 5662 5664 5665 5666 5667 5668 5668 5669 5670 5671 5672 5673 5674 5675 5675 5675 5676 5677 5678 5679 5679 5680 5680 5681 5682 5682 5682 5683 5683 5684 5684 5685 5685 5685 5686 5686 5687 5687 5687 5688 5688 5689 5690 5691 5691 5692 5692 5692 5692 5692 5692 5692 5692 5692
5649 5650 5651 5652 5652 5653 5653 5653 5654 5654 5655 5656 5657 5658 5659 5660 5661 5662 5663 5664 5665 5666 5667 5667 5668 5668 5669 5670 5671 5672 5672 5673 5674 5675 5675 5676 5677 5677 5677 5678 5679 5679 5679 5680 5680 5681 5681 5682 5682 5682 5683 5683 5684 5684 5685 5685 5686 5687 5687 5687 5688 5688 5688 5688 5688 5688 5688 5689 5689
5649 5650 5650 5651 5652 5652 5652 5652 5652 5652 5652 5652 5653 5655 5656 5657 5658 5659 5660 5661 5662 5662 5663 5664 5665 5666 5666 5667 5668 5669 5669 5670 5671 5671 5672 5673 5673 5674 5674 5675 5675 5675 5676 5676 5677 5677 5678 5678 5679 5679 5679 5680 5680 5681 5681 5682 5682 5683 5683 5684 5684 5685 5685 5685 5685 5685 5685 5685 5685
5647 5648 5649 5649 5650 5650 5651 5651 5651 5651 5650 5649 5650 5651 5652 5654 5655 5656 5657 5657 5658 5659 5660 5661 5662 5662 5663 5664 5665 5666 5666 5667 5667 5668 5668 5669 5669 5670 5671 5671 5671 5672 5672 5673 5673 5674 5674 5675 5676 5676 5676 5677 5677 5677 5678 5678 5679 5679 5680 5680 5680 5681 5681 5681 5681 5682 5682 5682 5682
5645 5646 5647 5647 5648 5648 5649 5649 5650 5650 5649 5648 5648 5649 5650 5651 5652 5653 5653 5654 5655 5656 5657 5657 5658 5659 5660 5661 5662 5662 5663 5663 5664 5664 5665 5665 5666 5667 5667 5667 5668 5668 5669 5669 5670 5670 5671 5672 5672 5672 5673 5673 5673 5674 5674 5675 5675 5676 5676 5677 5677 5677 5677 5677 5678 5678 5678 5678 5678
5643 5644 5644 5645 5645 5646 5647 5647 5647 5647 5647 5647 5647 5648 5649 5649 5650 5650 5651 5652 5653 5654 5654 5655 5656 5657 5658 5658 5658 5659 5659 5660 5660 5661 5662 5662 5663 5663 5664 5664 5665 5665 5666 5666 5667 5667 5668 5668 5669 5669 5670 5670 5670 5671 5671 5671 5672 5672 5672 5673 5673 5673 5674 5674 5674 5674 5674 5675 5675
5641 5642 5642 5642 5643 5643 5644 5644 5645 5645 5645 5646 5646 5647 5648 5648 5648 5649 5650 5650 5651 5652 5652 5652 5653 5653 5653 5654 5654 5655 5655 5656 5657 5657 5658 5658 5659 5660 5660 5661 5661 5662 5662 5662 5663 5664 5664 5665 5665 5666 5666 5667 5667 5667 5667 5668 5668 5669 5669 5669 5670 5670 5670 5670 5671 5671 5671 5671 5671
5639 5639 5640 5640 5641 5641 5641 5642 5642 5642 5643 5643 5644 5645 5645 5645 5646 5646 5646 5647 5648 5648 5649 5649 5649 5649 5650 5650 5651 5651 5652 5652 5653 5654 5654 5655 5656 5656 5657 5657 5657 5658 5659 5659 5660 5660 5661 5661 5662 5662 5663 5663 5663 5664 5664 5665 5665 5665 5666 5666 5666 5666 5666 5667 5667 5667 5667 5667 5667
5636 5637 5637 5637 5638 5638 5639 5639 5639 5640 5640 5641 5642 5642 5642 5643 5643 5643 5643 5644 5645 5645 5645 5646 5646 5646 5647 5647 5648 5648 5649 5649 5650 5651 5651 5652 5652 5653 5653 5654 5654 5655 5655 5656 5656 5656 5657 5657 5658 5659 5659 5660 5660 5660 5661 5661 5662 5662 5662 5662 5662 5662 5662 5662 5662 5663 5663 5662 5663
5633 5634 5634 5635 5635 5635 5636 5636 5637 5637 5638 5638 5639 5639 5640 5640 5640 5641 5641 5641 5642 5642 5642 5643 5643 5644 5644 5644 5645 5645 5646 5646 5647 5647 5648 5648 5649 5649 5650 5650 5651 5651 5652 5652 5652 5653 5653 5654 5654 5655 5656 5656 5656 5657 5657 5657 5658 5658 5658 5658 5658 5659 5659 5658 5658 5659 5659 5658 5658
5630 5631 5631 5632 5632 5632 5633 5633 5634 5634 5635 5635 5636 5636 5637 5637 5637 5638 5638 5638 5639 5639 5639 5640 5640 5641 5641 5642 5642 5642 5642 5643 5643 5644 5644 5645 5645 5646 5646 5647 5647 5647 5648 5648 5649 5649 5649 5650 5651 5651 5652 5652 5652 5653 5653 5653 5654 5654 5654 5654 5655 5655 5655 5654 5654 5654 5654 5654 5654